Weather History for KCEZ - June, 2014

Change the Weather History Date:

Monday, June 23, 2014

  Actual Average Record
Temperature  
Mean Temperature 69 °F 67 °F  
Max Temperature 91 °F 87 °F 98 °F (2012)
Min Temperature 46 °F 46 °F 36 °F (2010)
Degree Days  
Heating Degree Days 0 1  
Month to date heating degree days 31 71  
Since 1 June heating degree days 31 71  
Since 1 July heating degree days 6214 6438  
Cooling Degree Days 4 3  
Month to date cooling degree days 28 35  
Year to date cooling degree days 44 40  
Since 1 June cooling degree days 28 35  
Growing Degree Days 18 (Base 50)    
Moisture  
Dew Point 26 °F    
Average Humidity 34    
Maximum Humidity 61    
Minimum Humidity 6    
Precipitation  
Precipitation 0.00 in 0.01 in 0.01 in (2005)
Month to date precipitation T 0.38  
Year to date precipitation 2.99 5.52  
Sea Level Pressure  
Sea Level Pressure 29.85 in    
Wind  
Wind Speed 7 mph (East)    
Max Wind Speed 20 mph    
Max Gust Speed 24 mph    
Visibility 10 miles    
Events      
T = Trace of Precipitation, MM = Missing Value Source: NWS Daily Summary

Daily Weather History Graph

Daily Weather History Graph

Search for Another Location

Airport or City:

Trip Planner

Search our weather history database for the weather conditions in past years. The results will help you decide how hot, cold, wet, or windy it might be!

Date:

Astronomy

Jun. 23, 2014 Rise Set
Actual Time 5:54 AM MDT 8:38 PM MDT
Civil Twilight 5:23 AM MDT 9:09 PM MDT
Nautical Twilight 4:44 AM MDT 9:48 PM MDT
Astronomical Twilight 4:01 AM MDT 10:32 PM MDT
Moon 3:19 AM MDT (6/23) 5:25 PM MDT (6/23)
Length of Visible Light 15h 46m
Length of Day
14h 44m
Waning Crescent, 12% of the Moon is Illuminated
Jun 23
Waning Crescent
Jun 27
New
Jul 5
First Quarter
Jul 12
Full
Jul 18
Last Quarter

Hourly Weather History & Observations

Time (MDT) Temp. Dew Point Humidity Pressure Visibility Wind Dir Wind Speed Gust Speed Precip Events Conditions
12:53 AM 53.1 °F 32.0 °F 45% 29.83 in 10.0 mi ENE 6.9 mph - N/A   Clear
1:53 AM 51.1 °F 30.0 °F 44% 29.82 in 10.0 mi ENE 3.5 mph - N/A   Clear
2:53 AM 48.9 °F 35.1 °F 59% 29.83 in 10.0 mi ENE 3.5 mph - N/A   Clear
3:53 AM 48.9 °F 30.9 °F 50% 29.83 in 10.0 mi ENE 8.1 mph - N/A   Clear
4:53 AM 52.0 °F 33.1 °F 49% 29.84 in 10.0 mi ENE 8.1 mph - N/A   Clear
5:53 AM 48.0 °F 35.1 °F 61% 29.87 in 10.0 mi SE 6.9 mph - N/A   Clear
6:53 AM 50.0 °F 33.1 °F 52% 29.89 in 10.0 mi NE 4.6 mph - N/A   Clear
7:53 AM 60.1 °F 34.0 °F 38% 29.87 in 10.0 mi East 3.5 mph - N/A   Clear
8:53 AM 69.1 °F 37.0 °F 31% 29.88 in 10.0 mi ESE 3.5 mph - N/A   Clear
9:53 AM 79.0 °F 27.0 °F 15% 29.89 in 10.0 mi Variable 3.5 mph - N/A   Clear
10:53 AM 80.1 °F 25.0 °F 13% 29.91 in 10.0 mi Calm Calm - N/A   Clear
11:53 AM 82.9 °F 21.0 °F 10% 29.91 in 10.0 mi Variable 5.8 mph - N/A   Clear
1:53 PM 86.0 °F 18.0 °F 8% 29.88 in 10.0 mi West 4.6 mph - N/A   Clear
4:53 PM 89.1 °F 16.0 °F 7% 29.81 in 10.0 mi SW 6.9 mph - N/A   Clear
5:53 PM 88.0 °F 15.1 °F 7% 29.81 in 10.0 mi SW 10.4 mph 17.3 mph N/A   Clear
6:53 PM 87.1 °F 15.1 °F 7% 29.80 in 10.0 mi West 9.2 mph - N/A   Clear
7:53 PM 82.9 °F 21.0 °F 10% 29.79 in 10.0 mi SW 9.2 mph - N/A   Clear
8:53 PM 71.1 °F 23.0 °F 16% 29.82 in 10.0 mi SSW 4.6 mph - N/A   Clear
9:53 PM 61.0 °F 26.1 °F 26% 29.84 in 10.0 mi Variable 3.5 mph - N/A   Clear
10:53 PM 59.0 °F 24.1 °F 26% 29.86 in 10.0 mi ENE 9.2 mph - N/A   Clear
11:53 PM 57.9 °F 21.9 °F 25% 29.86 in 10.0 mi ENE 11.5 mph - N/A   Clear